Le nostre stazioni meteo in Italia

Pubblicità
Il mio iltempo24.it
Rodkallen, Svezia (2188): Temperatura & dewpoint: 19.05.2019 08:00:00 - 25.05.2019 08:00:00 (CEST)Rodkallen, Svezia (2188): velocità del vento & gusts: 19.05.2019 08:00:00 - 25.05.2019 08:00:00 (CEST)Rodkallen, Svezia (2188): direzione del vento: 19.05.2019 08:00:00 - 25.05.2019 08:00:00 (CEST)Rodkallen, Svezia (2188): visibility: 19.05.2019 08:00:00 - 25.05.2019 08:00:00 (CEST)Rodkallen, Svezia (2188): precipitazioni: 19.05.2019 08:00:00 - 25.05.2019 08:00:00 (CEST)
Data & Tempo tt [°C] td [°C] ff [km/h] ff [kn] fx [km/h] fx [kn] dd vv [km] rr [mm]
25.05.2019 08:00:00 - - - - - - - - -
25.05.2019 07:00:00 5,7 5,0 19 11 29 16 N 50 0,0
25.05.2019 06:00:00 5,6 5,2 24 13 32 17 N 43 0,0
25.05.2019 05:00:00 5,7 5,4 21 11 29 16 N 22 0,0
25.05.2019 04:00:00 5,8 5,5 22 12 29 16 N 19 0,0
25.05.2019 03:00:00 5,9 5,6 19 10 28 15 N 4,7 0,3
25.05.2019 02:00:00 5,6 5,3 20 11 26 14 N 4,2 0,0
25.05.2019 01:00:00 5,4 5,1 22 12 27 15 NNE 3,9 0,0
25.05.2019 00:00:00 5,2 4,9 21 11 26 14 NNE 3,5 0,0
24.05.2019 23:00:00 5,2 4,9 22 12 26 14 NNE 8 0,1
24.05.2019 22:00:00 5,3 5,0 20 11 28 15 NE 6 0,2
24.05.2019 21:00:00 5,1 4,8 23 13 32 17 NE 17 0,0
24.05.2019 20:00:00 5,2 4,8 29 15 36 19 ENE 10 0,4
24.05.2019 19:00:00 5,3 4,9 29 15 34 18 ENE 6 0,2
24.05.2019 18:00:00 5,0 4,6 29 16 37 20 ENE 8 0,0
24.05.2019 17:00:00 5,0 4,4 31 17 41 22 ENE 7 0,0
24.05.2019 16:00:00 4,9 4,3 33 18 43 23 ENE 20 0,0
24.05.2019 15:00:00 5,0 4,3 32 18 40 22 E 24 0,0
24.05.2019 14:00:00 4,9 4,0 32 17 40 22 ENE 6 0,1
24.05.2019 13:00:00 5,0 3,8 32 17 38 21 ENE 10 0,3
24.05.2019 12:00:00 5,1 3,6 31 17 42 23 E 21 0,3
24.05.2019 11:00:00 5,3 3,6 26 14 32 18 ENE 21 0,3
24.05.2019 10:00:00 5,3 4,1 18 10 22 12 NE 16 0,5
24.05.2019 09:00:00 5,3 3,5 13 7 18 10 E 25 0,3
24.05.2019 08:00:00 5,3 3,8 6 3 11 6 ESE 39 0,5
24.05.2019 07:00:00 4,9 3,7 8 5 12 7 SSE 16 0,3
24.05.2019 06:00:00 5,1 3,3 9 5 18 10 S 20 0,1
24.05.2019 05:00:00 5,2 2,4 16 9 22 12 SE 36 0,0
24.05.2019 04:00:00 5,7 2,5 17 9 27 14 E 50 0,0
24.05.2019 03:00:00 6,2 2,3 19 11 27 14 E 50 0,0
24.05.2019 02:00:00 6,3 2,6 22 12 28 15 E 50 0,0
24.05.2019 01:00:00 6,3 2,4 23 12 29 16 E 50 0,0
24.05.2019 00:00:00 6,5 1,4 21 11 25 14 E 50 0,0
23.05.2019 23:00:00 6,6 1,5 19 10 21 12 ENE 50 0,0
23.05.2019 22:00:00 6,6 1,7 16 8 18 10 ENE 50 0,0
23.05.2019 21:00:00 6,8 0,9 15 8 18 10 ENE 50 0,0
23.05.2019 20:00:00 7,0 0,9 14 8 20 11 NE 50 0,0
23.05.2019 19:00:00 7,0 0,4 16 9 21 11 NE 50 0,0
23.05.2019 18:00:00 7,1 0,1 16 9 22 12 NE 50 0,0
23.05.2019 17:00:00 7,1 -0,4 18 10 22 12 NE 50 0,0
23.05.2019 16:00:00 6,8 -0,7 18 10 26 14 NE 50 0,0
23.05.2019 15:00:00 6,7 -1,0 22 12 27 15 NE 50 0,0
23.05.2019 14:00:00 6,4 -0,1 23 12 27 15 NE 50 0,0
23.05.2019 13:00:00 6,4 -0,4 22 12 31 17 NE 48 0,0
23.05.2019 12:00:00 6,1 0,0 28 15 38 21 ENE 45 0,0
23.05.2019 11:00:00 5,6 0,4 32 17 42 23 ENE 39 0,0
23.05.2019 10:00:00 5,3 1,0 34 18 40 22 ENE 42 0,0
23.05.2019 09:00:00 4,8 0,4 34 18 42 23 ENE 46 0,0
23.05.2019 08:00:00 4,7 0,3 33 18 40 22 ENE 46 0,0
23.05.2019 07:00:00 5,0 -0,2 34 18 40 21 ENE 43 0,0
23.05.2019 06:00:00 5,1 0,5 32 18 41 22 ENE 46 0,0
23.05.2019 05:00:00 5,2 0,0 35 19 42 23 NE 47 0,0
23.05.2019 04:00:00 5,3 0,5 32 18 43 23 NE 50 0,0
23.05.2019 03:00:00 5,4 0,6 36 19 45 24 NE 50 0,0
23.05.2019 02:00:00 5,6 0,8 38 20 49 27 NE 48 0,0
23.05.2019 01:00:00 6,0 0,9 41 22 52 28 NE 42 0,0
23.05.2019 00:00:00 6,6 1,9 39 21 48 26 ENE 50 0,0
22.05.2019 23:00:00 6,7 2,2 34 18 40 22 ENE 49 0,0
22.05.2019 22:00:00 7,3 2,6 29 16 38 21 ENE 50 0,0
22.05.2019 21:00:00 9,2 1,6 29 16 41 22 NNE 50 0,0
22.05.2019 20:00:00 9,6 3,3 26 14 33 18 N 50 0,0
22.05.2019 19:00:00 9,0 3,6 21 11 29 16 N 50 0,0
22.05.2019 18:00:00 9,3 4,9 23 12 32 18 N 43 0,0
22.05.2019 17:00:00 9,3 5,1 24 13 32 17 N 35 0,0
22.05.2019 16:00:00 8,8 4,8 25 14 41 22 N 36 0,0
22.05.2019 15:00:00 9,6 5,8 29 16 43 23 N 29 0,0
22.05.2019 14:00:00 9,4 6,5 30 16 46 25 N 23 0,0
22.05.2019 13:00:00 10,6 6,5 31 17 41 22 N 27 0,0
22.05.2019 12:00:00 11,6 6,9 29 16 38 20 N 24 0,0
22.05.2019 11:00:00 11,9 7,0 25 13 32 17 N 24 0,0
22.05.2019 10:00:00 11,5 7,2 22 12 32 17 N 19 0,0
22.05.2019 09:00:00 10,9 7,2 25 14 33 18 N 25 0,0
22.05.2019 08:00:00 10,4 6,9 25 13 31 17 N 28 0,0
22.05.2019 07:00:00 10,7 7,0 27 15 37 20 N 34 0,0
22.05.2019 06:00:00 10,4 7,5 29 16 39 21 N 27 0,0
22.05.2019 05:00:00 10,4 8,2 26 14 33 18 N 43 0,0
22.05.2019 04:00:00 10,6 8,7 24 13 28 15 N 43 0,0
22.05.2019 03:00:00 10,7 9,8 17 9 22 12 N 21 0,0
22.05.2019 02:00:00 11,2 9,5 16 8 18 10 NNE 40 0,0
22.05.2019 01:00:00 10,9 9,5 14 8 22 12 N 24 0,0
22.05.2019 00:00:00 12,3 9,3 16 9 22 12 NNO 46 0,0
21.05.2019 23:00:00 13,1 9,4 14 7 19 10 NNO 50 0,0
21.05.2019 22:00:00 12,5 9,9 16 8 21 12 NO 40 0,0
21.05.2019 21:00:00 12,6 9,4 12 7 15 8 NO 43 0,0
21.05.2019 20:00:00 13,1 9,5 12 6 15 8 NNO 39 0,0
21.05.2019 19:00:00 14,7 9,9 9 5 11 6 N 38 0,0
21.05.2019 18:00:00 14,5 9,5 9 5 13 7 NNE 47 0,0
21.05.2019 17:00:00 12,4 9,9 11 6 15 8 NE 26 0,0
21.05.2019 16:00:00 12,0 9,4 14 8 19 11 NE 32 0,0
21.05.2019 15:00:00 12,0 9,9 16 9 19 10 NE 31 0,0
21.05.2019 14:00:00 12,2 9,4 14 8 21 11 NE 33 0,0
21.05.2019 13:00:00 12,9 9,7 3 2 14 8 ENE 25 0,0
21.05.2019 12:00:00 11,7 9,8 6 3 14 8 NNE 16 0,0
21.05.2019 11:00:00 10,0 9,2 15 8 27 14 NE 9 0,0
21.05.2019 10:00:00 10,0 9,7 23 12 28 15 NNE 3,2 0,0
21.05.2019 09:00:00 9,1 8,8 20 11 26 14 NNE 1,1 0,0
21.05.2019 08:00:00 9,3 8,8 21 11 24 13 NNE 1,2 0,0
21.05.2019 07:00:00 9,5 8,9 19 11 29 16 NNE 12 0,0
21.05.2019 06:00:00 10,4 10,1 15 8 20 11 N 14 0,0
21.05.2019 05:00:00 9,8 9,5 16 9 22 12 N 9 0,0
21.05.2019 04:00:00 9,6 9,3 17 9 22 12 N 6 0,0
21.05.2019 03:00:00 9,9 9,4 16 8 22 12 N 11 0,0
21.05.2019 02:00:00 10,2 9,7 16 9 23 12 NNE 17 0,0
21.05.2019 01:00:00 10,2 9,7 19 10 29 16 NNE 17 0,0
21.05.2019 00:00:00 10,6 10,3 23 13 27 15 NNE 9 0,0
20.05.2019 23:00:00 10,3 10,0 22 12 26 14 NNE 7 0,0
20.05.2019 22:00:00 9,6 9,1 20 11 24 13 NE 8 0,0
20.05.2019 21:00:00 9,6 9,0 20 11 25 13 NNE 11 0,0
20.05.2019 20:00:00 9,5 8,9 22 12 26 14 ENE 21 0,0
20.05.2019 19:00:00 9,5 8,9 21 12 27 15 ENE 14 0,0
20.05.2019 18:00:00 9,9 8,7 19 10 24 13 NE 29 0,0
20.05.2019 17:00:00 9,6 8,2 18 10 22 12 ENE 35 0,0
20.05.2019 16:00:00 10,6 9,0 17 9 20 11 ENE 25 0,0
20.05.2019 15:00:00 9,7 8,5 14 7 18 10 ENE 32 0,0
20.05.2019 14:00:00 9,9 7,1 15 8 19 10 E 45 0,0
20.05.2019 13:00:00 10,1 6,3 8 5 19 11 ESE 50 0,0
20.05.2019 12:00:00 9,7 6,2 12 6 17 9 ESE 45 0,0
20.05.2019 11:00:00 9,0 6,6 11 6 16 9 SE 47 0,0
20.05.2019 10:00:00 11,0 7,7 6 3 16 9 SE 45 0,0
20.05.2019 09:00:00 9,7 7,8 6 3 13 7 E 47 0,0
20.05.2019 08:00:00 8,5 7,3 13 7 21 11 SSE 50 0,0
20.05.2019 07:00:00 8,8 7,9 11 6 14 8 SSO 37 1,3
20.05.2019 06:00:00 10,2 8,0 4 2 16 9 S 48 0,0
20.05.2019 05:00:00 10,9 8,1 16 9 18 10 N 46 0,0
20.05.2019 04:00:00 11,2 8,2 8 5 16 9 SE 50 0,7
20.05.2019 03:00:00 10,7 7,8 3 1 16 9 S 45 0,2
20.05.2019 02:00:00 10,1 5,7 6 4 9 5 SSO 50 0,0
20.05.2019 01:00:00 9,6 6,1 0 0 4 2 N 50 0,0
20.05.2019 00:00:00 9,9 6,8 0 0 4 2 N 50 0,0
19.05.2019 23:00:00 9,4 6,7 2 1 9 5 SSE 50 0,0
19.05.2019 22:00:00 9,9 6,4 8 4 13 7 ENE 50 0,0
19.05.2019 21:00:00 9,8 6,9 10 5 13 7 NE 50 0,0
19.05.2019 20:00:00 10,3 6,6 8 4 10 5 ENE 47 0,0
19.05.2019 19:00:00 11,2 5,9 5 3 11 6 ENE 50 0,0
19.05.2019 18:00:00 10,7 5,7 9 5 13 7 ENE 49 0,0
19.05.2019 17:00:00 10,3 5,3 10 6 15 8 NE 48 0,0
19.05.2019 16:00:00 9,6 6,1 10 5 17 9 NE 41 0,0
19.05.2019 15:00:00 9,4 5,8 11 6 16 9 ENE 41 0,0
19.05.2019 14:00:00 8,5 6,0 15 8 20 11 ENE 44 0,0
19.05.2019 13:00:00 8,9 6,2 13 7 16 8 ENE 49 0,0
19.05.2019 12:00:00 9,1 5,3 10 6 15 8 E 44 0,0
19.05.2019 11:00:00 9,7 4,3 11 6 15 8 SE 47 0,0
19.05.2019 10:00:00 9,1 4,5 9 5 13 7 SE 45 0,0
19.05.2019 09:00:00 8,2 4,4 7 4 11 6 ESE 40 0,0
19.05.2019 08:00:00 8,2 4,8 7 4 13 7 SE 46 0,0

tt = Temperatura
td = dewpoint
ff = velocità del vento
fx = gusts
dd = direzione del vento
vv = visibility
rr = precipitazioni

Stazioni seguenti

WeatherPro
AMSI
MeteoEarth